When you browse on this site, cookies collect data to enhance your experience and personalize the content and advertising you see.
Visit our Privacy Policy to learn more. By continuing to use the site, you agree to this use of cookies and data.
  • In Hungary
  • List of Countries
  • For 7 days
  • Water Temperature
  • Weather Map
  • News
  • Weather Widgets
  • user-avatar
    Login

    Hourly Weather Natuhay

    Today, 19 October, Saturday

    Time Temperature Precipitation Wind Pressure Humidity
    00:00 +18°C° 0 mm 1 mps 759 mmHg 69%
    01:00 +18°C° 0 mm 1 mps 759 mmHg 71%
    02:00 +16°C° 0 mm 1 mps 759 mmHg 72%
    03:00 +16°C° 0 mm 1 mps 759 mmHg 74%
    04:00 +16°C° 0 mm 1 mps 760 mmHg 75%
    05:00 +16°C° 0 mm 1 mps 760 mmHg 76%
    06:00 +15°C° 0 mm 1 mps 760 mmHg 77%
    07:00 +18°C° 0 mm 1 mps 760 mmHg 72%
    08:00 +17°C° 0 mm 0 mps 760 mmHg 68%
    09:00 +18°C° 0 mm 0 mps 761 mmHg 63%
    10:00 +20°C° 0 mm 0 mps 761 mmHg 58%
    11:00 +22°C° 0 mm 0 mps 761 mmHg 53%
    12:00 +25°C° 0 mm 1 mps 761 mmHg 48%
    13:00 +25°C° 0 mm 1 mps 761 mmHg 47%
    14:00 +26°C° 0 mm 1 mps 760 mmHg 46%
    15:00 +26°C° 0 mm 1 mps 760 mmHg 45%
    16:00 +24°C° 0 mm 1 mps 760 mmHg 50%
    17:00 +23°C° 0 mm 1 mps 760 mmHg 55%
    18:00 +21°C° 0 mm 1 mps 760 mmHg 59%
    19:00 +21°C° 0 mm 1 mps 760 mmHg 61%
    20:00 +20°C° 0 mm 1 mps 761 mmHg 63%
    21:00 +19°C° 0 mm 1 mps 761 mmHg 65%
    22:00 +19°C° 0 mm 1 mps 761 mmHg 67%
    23:00 +18°C° 0 mm 1 mps 761 mmHg 69%

    Tomorrow, 20 October, Sunday

    Time Temperature Precipitation Wind Pressure Humidity
    00:00 +18°C° 0 mm 1 mps 761 mmHg 70%
    01:00 +16°C° 0 mm 1 mps 761 mmHg 71%
    02:00 +16°C° 0 mm 1 mps 761 mmHg 72%
    03:00 +16°C° 0 mm 1 mps 761 mmHg 73%
    04:00 +15°C° 0 mm 1 mps 761 mmHg 74%
    05:00 +15°C° 0 mm 1 mps 761 mmHg 74%
    06:00 +15°C° 0 mm 1 mps 762 mmHg 75%
    07:00 +16°C° 0 mm 1 mps 762 mmHg 70%
    08:00 +18°C° 0 mm 1 mps 762 mmHg 65%
    09:00 +20°C° 0 mm 1 mps 762 mmHg 60%
    10:00 +20°C° 0 mm 2 mps 762 mmHg 55%
    11:00 +23°C° 0 mm 2 mps 762 mmHg 50%
    12:00 +25°C° 0 mm 2 mps 762 mmHg 45%
    13:00 +25°C° 0 mm 3 mps 762 mmHg 44%
    14:00 +26°C° 0 mm 3 mps 761 mmHg 42%
    15:00 +26°C° 0 mm 3 mps 761 mmHg 41%
    16:00 +25°C° 0 mm 3 mps 761 mmHg 46%
    17:00 +22°C° 0 mm 3 mps 761 mmHg 50%
    18:00 +21°C° 0 mm 3 mps 761 mmHg 55%
    19:00 +20°C° 0 mm 3 mps 761 mmHg 57%
    20:00 +19°C° 0 mm 3 mps 761 mmHg 58%
    21:00 +19°C° 0 mm 3 mps 761 mmHg 60%
    22:00 +18°C° 0 mm 3 mps 761 mmHg 61%
    23:00 +17°C° 0 mm 3 mps 761 mmHg 63%

    Day after tomorrow, 21 October, Monday

    Time Temperature Precipitation Wind Pressure Humidity
    00:00 +16°C° 0 mm 3 mps 761 mmHg 64%
    01:00 +16°C° 0 mm 2 mps 761 mmHg 66%
    02:00 +15°C° 0 mm 2 mps 761 mmHg 67%
    03:00 +15°C° 0 mm 2 mps 761 mmHg 69%
    04:00 +14°C° 0 mm 2 mps 761 mmHg 70%
    05:00 +14°C° 0 mm 2 mps 762 mmHg 71%
    06:00 +14°C° 0 mm 2 mps 762 mmHg 72%
    07:00 +15°C° 0 mm 2 mps 762 mmHg 68%
    08:00 +16°C° 0 mm 3 mps 762 mmHg 63%
    09:00 +17°C° 0 mm 3 mps 762 mmHg 59%
    10:00 +19°C° 0 mm 3 mps 762 mmHg 54%
    11:00 +20°C° 0 mm 4 mps 762 mmHg 48%
    12:00 +22°C° 0 mm 4 mps 762 mmHg 43%
    13:00 +23°C° 0 mm 4 mps 762 mmHg 40%
    14:00 +23°C° 0 mm 5 mps 761 mmHg 37%
    15:00 +25°C° 0 mm 5 mps 761 mmHg 35%
    16:00 +22°C° 0 mm 5 mps 761 mmHg 38%
    17:00 +21°C° 0 mm 4 mps 761 mmHg 42%
    18:00 +19°C° 0 mm 4 mps 761 mmHg 46%
    19:00 +18°C° 0 mm 4 mps 761 mmHg 49%
    20:00 +18°C° 0 mm 4 mps 761 mmHg 52%
    21:00 +17°C° 0 mm 4 mps 761 mmHg 55%
    22:00 +15°C° 0 mm 4 mps 761 mmHg 60%
    23:00 +14°C° 0 mm 3 mps 761 mmHg 64%

    22 October, Tuesday

    Time Temperature Precipitation Wind Pressure Humidity
    00:00 +14°C° 0 mm 3 mps 761 mmHg 69%
    01:00 +13°C° 0 mm 3 mps 761 mmHg 72%
    02:00 +13°C° 0 mm 3 mps 761 mmHg 75%
    03:00 +12°C° 0 mm 3 mps 761 mmHg 78%
    04:00 +13°C° 0 mm 2 mps 761 mmHg 79%
    05:00 +12°C° 0 mm 2 mps 762 mmHg 81%
    06:00 +12°C° 0 mm 2 mps 762 mmHg 83%
    07:00 +13°C° 0 mm 2 mps 762 mmHg 78%
    08:00 +13°C° 0 mm 3 mps 762 mmHg 74%
    09:00 +14°C° 0 mm 3 mps 762 mmHg 69%
    10:00 +17°C° 0 mm 3 mps 762 mmHg 63%
    11:00 +19°C° 0 mm 3 mps 762 mmHg 57%
    12:00 +21°C° 0 mm 3 mps 762 mmHg 51%
    13:00 +21°C° 0 mm 3 mps 762 mmHg 49%
    14:00 +22°C° 0 mm 3 mps 761 mmHg 47%
    15:00 +23°C° 0 mm 4 mps 761 mmHg 45%
    16:00 +21°C° 0 mm 3 mps 761 mmHg 49%
    17:00 +19°C° 0 mm 3 mps 761 mmHg 53%
    18:00 +18°C° 0 mm 3 mps 761 mmHg 57%
    19:00 +17°C° 0 mm 3 mps 761 mmHg 60%
    20:00 +16°C° 0 mm 3 mps 761 mmHg 63%
    21:00 +14°C° 0 mm 3 mps 761 mmHg 66%
    22:00 +14°C° 0 mm 3 mps 761 mmHg 69%
    23:00 +14°C° 0 mm 2 mps 761 mmHg 73%

    23 October, Wednesday

    Time Temperature Precipitation Wind Pressure Humidity
    00:00 +13°C° 0 mm 2 mps 761 mmHg 76%
    01:00 +13°C° 0 mm 2 mps 761 mmHg 79%
    02:00 +12°C° 0 mm 1 mps 761 mmHg 81%
    03:00 +12°C° 0 mm 1 mps 761 mmHg 83%
    04:00 +12°C° 0 mm 1 mps 762 mmHg 85%
    05:00 +11°C° 0 mm 1 mps 762 mmHg 86%
    06:00 +11°C° 0 mm 1 mps 762 mmHg 87%
    07:00 +12°C° 0 mm 1 mps 762 mmHg 82%
    08:00 +13°C° 0 mm 1 mps 762 mmHg 77%
    09:00 +14°C° 0 mm 1 mps 762 mmHg 73%
    10:00 +16°C° 0 mm 1 mps 762 mmHg 66%
    11:00 +18°C° 0 mm 2 mps 762 mmHg 59%
    12:00 +20°C° 0 mm 2 mps 762 mmHg 52%
    13:00 +21°C° 0 mm 2 mps 762 mmHg 50%
    14:00 +21°C° 0 mm 2 mps 762 mmHg 47%
    15:00 +23°C° 0 mm 2 mps 761 mmHg 44%
    16:00 +21°C° 0 mm 2 mps 761 mmHg 50%
    17:00 +19°C° 0 mm 2 mps 761 mmHg 55%
    18:00 +17°C° 0 mm 2 mps 761 mmHg 60%
    19:00 +17°C° 0 mm 2 mps 761 mmHg 63%
    20:00 +16°C° 0 mm 2 mps 762 mmHg 65%
    21:00 +15°C° 0 mm 2 mps 762 mmHg 68%
    22:00 +15°C° 0 mm 2 mps 762 mmHg 71%
    23:00 +14°C° 0 mm 2 mps 762 mmHg 73%

    24 October, Thursday

    Time Temperature Precipitation Wind Pressure Humidity
    00:00 +14°C° 0 mm 2 mps 762 mmHg 76%
    01:00 +13°C° 0 mm 1 mps 762 mmHg 78%
    02:00 +13°C° 0 mm 1 mps 762 mmHg 79%
    03:00 +12°C° 0 mm 1 mps 762 mmHg 81%
    04:00 +12°C° 0 mm 1 mps 762 mmHg 82%
    05:00 +12°C° 0 mm 1 mps 762 mmHg 83%
    06:00 +11°C° 0 mm 1 mps 762 mmHg 84%
    07:00 +13°C° 0 mm 1 mps 762 mmHg 79%
    08:00 +14°C° 0 mm 1 mps 762 mmHg 75%
    09:00 +15°C° 0 mm 2 mps 762 mmHg 71%
    10:00 +17°C° 0 mm 2 mps 762 mmHg 64%
    11:00 +19°C° 0 mm 2 mps 762 mmHg 57%
    12:00 +21°C° 0 mm 2 mps 762 mmHg 50%
    13:00 +21°C° 0 mm 3 mps 761 mmHg 47%
    14:00 +22°C° 0 mm 3 mps 761 mmHg 44%
    15:00 +24°C° 0 mm 3 mps 761 mmHg 41%
    16:00 +21°C° 0 mm 3 mps 761 mmHg 47%
    17:00 +20°C° 0 mm 3 mps 761 mmHg 52%
    18:00 +18°C° 0 mm 3 mps 761 mmHg 58%
    19:00 +17°C° 0 mm 3 mps 761 mmHg 60%
    20:00 +17°C° 0 mm 3 mps 761 mmHg 62%
    21:00 +16°C° 0 mm 3 mps 761 mmHg 64%
    22:00 +14°C° 0 mm 3 mps 761 mmHg 66%
    23:00 +15°C° 0 mm 2 mps 761 mmHg 69%
    Show more